Lubbock, TX

2:49 PM CST on November 15, 2019 (GMT -0600)
Lubbock International

Weather History for KLBB - August, 2019

Change the Weather History Date:

Saturday, August 17, 2019

  Actual Average Record
Temperature  
Mean Temperature 85 °F 79 °F  
Max Temperature 104 °F 92 °F 104 °F (2019)
Min Temperature 66 °F 67 °F 56 °F (1931)
Degree Days  
Heating Degree Days 0 0  
Month to date heating degree days 0 0  
Since 1 June heating degree days 0 2  
Since 1 July heating degree days 0 0  
Cooling Degree Days 20 14  
Month to date cooling degree days 352 251  
Year to date cooling degree days 1459 1344  
Since 1 June cooling degree days 1249 1098  
Growing Degree Days 38 (Base 50)    
Moisture  
Dew Point 54 °F    
Average Humidity 36    
Maximum Humidity 54    
Minimum Humidity 18    
Precipitation  
Precipitation 0.00 in 0.06 in 1.40 in (1981)
Month to date precipitation 0.13 1.03  
Year to date precipitation 13.58 12.19  
Snow  
Snow 0.00 in 0.00 in 0.00 in (2002)
Month to date snowfall 0.0 0.0  
Since 1 June snowfall 0.0 0.0  
Since 1 July snowfall 0.0 0.0  
Snow Depth 0.00 in    
Sea Level Pressure  
Sea Level Pressure 29.71 in    
Wind  
Wind Speed 14 mph (South)    
Max Wind Speed 35 mph    
Max Gust Speed 46 mph    
Visibility 10 miles    
Events Thunderstorm    
T = Trace of Precipitation, MM = Missing Value Source: NWS Daily Summary

Daily Weather History Graph

Daily Weather History Graph

Search for Another Location

Airport or City:

Astronomy

Aug. 17, 2019 Rise Set
Actual Time 7:10 AM CDT 8:31 PM CDT
Civil Twilight 6:44 AM CDT 8:57 PM CDT
Nautical Twilight 6:13 AM CDT 9:28 PM CDT
Astronomical Twilight 5:40 AM CDT 10:01 PM CDT
Moon 10:05 PM CDT (8/17) 8:58 AM CDT (8/17)
Length of Visible Light 14h 13m
Length of Day
13h 20m
Waning Gibbous, 96% of the Moon is Illuminated
Aug 17
Waning Gibbous
Aug 23
Last Quarter
Aug 30
New
Sep 5
First Quarter
Sep 13
Full

Hourly Weather History & Observations

Time (CDT) Temp. Heat Index Dew Point Humidity Pressure Visibility Wind Dir Wind Speed Gust Speed Precip Events Conditions
12:53 AM 80.1 °F 80.0 °F 54.0 °F 40% 29.76 in 10.0 mi SSE 12.7 mph - N/A   Scattered Clouds
1:53 AM 79.0 °F - 55.0 °F 44% 29.74 in 10.0 mi SSE 11.5 mph - N/A   Partly Cloudy
2:53 AM 78.1 °F - 55.0 °F 45% 29.73 in 10.0 mi South 10.4 mph - N/A   Partly Cloudy
3:53 AM 78.1 °F - 55.0 °F 45% 29.72 in 10.0 mi South 10.4 mph - N/A   Partly Cloudy
4:53 AM 80.1 °F 80.0 °F 54.0 °F 40% 29.71 in 10.0 mi SSW 9.2 mph - N/A   Scattered Clouds
5:53 AM 73.9 °F - 55.9 °F 53% 29.72 in 10.0 mi SSE 11.5 mph - N/A   Partly Cloudy
6:53 AM 75.0 °F - 57.0 °F 53% 29.73 in 10.0 mi South 10.4 mph - N/A   Partly Cloudy
7:53 AM 75.9 °F - 57.9 °F 54% 29.73 in 10.0 mi South 9.2 mph - N/A   Partly Cloudy
8:53 AM 82.0 °F 82.1 °F 59.0 °F 45% 29.74 in 10.0 mi SSW 15.0 mph 23.0 mph N/A   Scattered Clouds
9:53 AM 87.1 °F 86.7 °F 60.1 °F 40% 29.75 in 10.0 mi SW 20.7 mph 26.5 mph N/A   Scattered Clouds
10:53 AM 87.1 °F 87.0 °F 61.0 °F 41% 29.73 in 10.0 mi SSW 18.4 mph - N/A   Mostly Cloudy
11:53 AM 90.0 °F 90.0 °F 61.0 °F 38% 29.74 in 10.0 mi SSW 13.8 mph - N/A   Mostly Cloudy
12:53 PM 97.0 °F 96.9 °F 60.1 °F 29% 29.72 in 10.0 mi South 15.0 mph 23.0 mph N/A   Scattered Clouds
1:53 PM 100.0 °F 98.8 °F 55.9 °F 23% 29.69 in 10.0 mi SSW 13.8 mph 24.2 mph N/A   Scattered Clouds
3:53 PM 102.9 °F 101.4 °F 54.0 °F 20% 29.64 in 10.0 mi SW 15.0 mph 21.9 mph N/A   Scattered Clouds
4:53 PM 102.9 °F - 52.0 °F 18% 29.62 in 10.0 mi South 15.0 mph 24.2 mph N/A   Mostly Cloudy
5:53 PM 99.0 °F - 51.1 °F 20% 29.62 in 9.0 mi West 23.0 mph 28.8 mph N/A   Mostly Cloudy
6:00 PM 96.1 °F - 48.0 °F 19% 29.81 in 4.0 mi WSW 26.5 mph 35.7 mph N/A   Widespread Dust
6:14 PM 98.1 °F - 44.1 °F 16% 29.80 in 8.0 mi SW 26.5 mph 34.5 mph N/A Thunderstorm Thunderstorm
6:49 PM 95.0 °F - 48.2 °F 20% 29.79 in 10.0 mi South 17.3 mph 27.6 mph N/A   Mostly Cloudy
6:53 PM 95.0 °F - 48.0 °F 20% 29.61 in 10.0 mi South 16.1 mph 27.6 mph N/A   Mostly Cloudy
7:53 PM 91.9 °F - 52.0 °F 26% 29.62 in 10.0 mi SSE 20.7 mph - N/A   Scattered Clouds
8:53 PM 88.0 °F 85.7 °F 53.1 °F 30% 29.62 in 10.0 mi SSE 11.5 mph - N/A   Mostly Cloudy
9:53 PM 88.0 °F 85.7 °F 53.1 °F 30% 29.63 in 10.0 mi South 11.5 mph - N/A   Partly Cloudy
10:53 PM 84.0 °F 83.0 °F 55.9 °F 38% 29.68 in 10.0 mi South 10.4 mph - N/A   Partly Cloudy
11:23 PM 82.0 °F 81.4 °F 55.0 °F 39% 29.88 in 10.0 mi SE 11.5 mph - N/A   Partly Cloudy
11:53 PM 82.9 °F 81.9 °F 54.0 °F 37% 29.70 in 10.0 mi SSE 12.7 mph - N/A   Partly Cloudy